This is the latest recevied weather packets stored in our database for station/object IONIA-WX. If no packets are shown the sender has not sent any weather packets the latest 1 day(s).
| Time | Temp. | Humidity | Pressure | Rain* | Wind** | Luminosity | Snow |
|---|---|---|---|---|---|---|---|
| 1777986920 | 10.56° C | 46% | 976.5 hPa | 0 mm | 4.92 m/s, 283° | - | - |
| 1777986045 | 11.67° C | 46% | 976.5 hPa | 0 mm | 3.58 m/s, 301° | - | - |
| 1777985119 | 11.11° C | 65% | 975.5 hPa | 0 mm | 3.13 m/s, 308° | - | - |
| 1777984239 | 10.56° C | 63% | 974.6 hPa | 0 mm | 3.13 m/s, 333° | - | - |
| 1777983319 | 10.56° C | 63% | 974.6 hPa | 0 mm | 4.02 m/s, 327° | - | - |
| 1777982450 | 10° C | 63% | 974.6 hPa | 0 mm | 4.02 m/s, 327° | - | - |
| 1777981520 | 10° C | 67% | 973.9 hPa | 0 mm | 3.58 m/s, 330° | - | - |
| 1777980636 | 10° C | 67% | 972.6 hPa | 0 mm | 4.47 m/s, 341° | - | - |
| 1777979719 | 10° C | 67% | 972.6 hPa | 0 mm | 4.47 m/s, 356° | - | - |
| 1777978849 | 10.56° C | 67% | 972.6 hPa | 0 mm | 5.36 m/s, 345° | - | - |
| 1777977920 | 10.56° C | 51% | 971 hPa | 0 mm | 4.02 m/s, 294° | - | - |
| 1777977037 | 11.11° C | 51% | 971 hPa | 0 mm | 3.58 m/s, 282° | - | - |
| 1777976119 | 11.11° C | 51% | 971 hPa | 0 mm | 4.02 m/s, 275° | - | - |
| 1777975248 | 10.56° C | 51% | 971 hPa | 0 mm | 4.47 m/s, 269° | - | - |
| 1777974319 | 11.67° C | 51% | 971.2 hPa | 0 mm | 4.47 m/s, 265° | - | - |
| 1777973441 | 11.67° C | 52% | 970.8 hPa | 0 mm | 4.47 m/s, 252° | - | - |
| 1777972519 | 11.67° C | 52% | 970.9 hPa | 0 mm | 4.02 m/s, 253° | - | - |
| 1777971650 | 11.67° C | 52% | 970.9 hPa | 0 mm | 4.02 m/s, 245° | - | - |
| 1777970717 | 11.67° C | 64% | 971.4 hPa | 0 mm | 4.02 m/s, 245° | - | - |
| 1777969837 | 11.67° C | 72% | 970.9 hPa | 0 mm | 4.02 m/s, 241° | - | - |
* Rain latest hour (hover to see other rain measurements)
** Current wind speed in m/s (hover to see current wind gust speed)